Location: ????????
(54.9045°N, 39.1041°E)
Time: 13:40:53
(UTC+00:00)

BlueWalker 3 - Pass Details

Date: 14 April 2024
Orbit: 481 x 494 km, 53.2° (Epoch: 26 May)

Event Time Altitude Azimuth Distance (km) Brightness Sun altitude
Exits shadow 22:56:56 27° 108° (ESE) 994 3.4 -22.7°
Drops below altitude 10° 22:58:47 10° 102° (ESE) 1,700 4.8 -22.6°
Enters shadow 00:08:15 -43° 290° (WNW) 9,430 8.3 -17.0°
